Погода в Новобейсугской

Россия / Краснодарский край     45°28′00″N   39°53′15″E
темп.,
°C
ветер,
м/с
пор.,
м/с
влажн.,
%
обл.,
%
осадки,
мм/ч
давл.,
гПа
погр.,
м
17 октября, вс
вс1700:00+15з2266100 0.0 101411
03:00+14з226899 0.0 101410
06:00+12з117540 0.1 101410
09:00+16з1161100 0.1 1014184
12:00+20з225079 0.0 1013693
15:00+21сз3442100 0.0 1012922
18:00+17зсз225498 0.0 101314
21:00+16зсз2256100 0.0 101431
18 октября, пн
пн1800:00+16з2255100 0.0 101421
03:00+13зсз34625 0.0 101463
06:00+11ссз225929 0.0 101520
09:00+15сз22475 0.0 1016259
12:00+19ссз33365 0.0 1016901
15:00+20сз343440 0.0 10151259
18:00+15сз364527 0.0 101697
21:00+14зсз355439 0.0 1017135
19 октября, вт
вт1900:00+13зсз356121 0.0 1018189
03:00+12з3668100 0.0 1018214
06:00+11зюз487217 0.0 1018290
09:00+12з5958100 0.0 1019604
12:00+15з794539 0.0 10181519
15:00+14зсз71147100 0.0 10181555
18:00+11зсз71061100 0.2 10191290
21:00+10зсз696989 0.2 1020533
20 октября, ср
ср2000:00+8з5108893 0.0 1022348
03:00+8ссз478297 0.1 1023493
06:00+5зсз48810 0.0 1026204
09:00+8зсз57560 0.0 1027736
12:00+11зсз674146 0.0 10281781
15:00+11зсз563690 0.0 10271774
18:00+8зсз354799 0.0 1029109
21:00+6сз22555 0.0 102924
21 октября, чт
чт2100:00+5ссз1159100 0.0 102910
03:00+4ююз116098 0.0 102910
06:00+3ююв11645 0.0 102910
09:00+7юв2351100 0.0 1029263
12:00+12ю23400 0.0 1027756
15:00+14юз233821 0.0 10251039
18:00+11ююв22495 0.0 102511
21:00+9ююв235310 0.0 102422